Flag for U.S.A. Weather past 2 weeks in New Salem, North Dakota, U.S.A.

Now
50 °F

Clear.


Feels Like: 45 °F
Forecast: 40 / 58 °F
Wind: 13 mph from East

Location: Bismarck Municipal Airport

Current Time: Apr 24, 2015 at 11:48:55 PM

Latest Report: Apr 24, 2015 at 10:52 PM


Visibility: 10 mi

Pressure: 29.72 "Hg

Humidity: 74%

Dew point: 42 °F

Location of New SalemLocation

Historic Weather in New Salem — Graph

°F

New Salem temperature yesterday

Maximum temperature yesterday: 58 °F (at 5:52 PM)
Minimum temperature yesterday: 21 °F (at 6:52 AM)
Average temperature yesterday: 43 °F

Past Weeks' High & Low Weather Summary

 TemperatureHumidityPressure
High82 °F (Apr 14, 3:52 PM)93% (Apr 18, 11:52 PM)30.24 "Hg (Apr 18, 11:52 PM)
Low20 °F (Apr 22, 5:52 AM)13% (Apr 20, 2:52 PM)29.45 "Hg (Apr 12, 1:52 AM)
Average49 °F45%29.93 "Hg
* Reported Apr 9 9:52 PM — Apr 24 9:52 PM, New Salem, Weather by CustomWeather, © 2015

Note: Actual official high and low records may vary slightly from our data, if they occured in-between our weather recording intervals... More about our weather records

Advertising

New Salem weather history for previous 24 hours

 ConditionsComfort  
Time TempWeatherWind HumidityBarometerVisibility
9:52 PM
Fri, Apr 24
52 °FClear.10 mph66%29.69 "Hg10 mi
8:52 PM56 °FSunny.8 mph58%29.66 "Hg10 mi
7:52 PM63 °FSunny.12 mph43%29.64 "Hg10 mi
5:52 PM67 °FSunny.13 mph36%29.62 "Hg10 mi
4:52 PM67 °FSunny.10 mph36%29.61 "Hg10 mi
3:52 PM66 °FSunny.12 mph37%29.62 "Hg10 mi
2:52 PM66 °FSunny.15 mph36%29.62 "Hg10 mi
1:52 PM63 °FSunny.13 mph38%29.64 "Hg10 mi
12:52 PM60 °FSunny.8 mph41%29.66 "Hg10 mi
11:52 AM54 °FSunny.7 mph47%29.68 "Hg10 mi
10:52 AM50 °FSunny.3 mph52%29.68 "Hg10 mi
9:52 AM45 °FSunny.7 mph58%29.70 "Hg10 mi
8:52 AM41 °FSunny.9 mph62%29.70 "Hg10 mi
7:52 AM37 °FSunny.10 mph70%29.70 "Hg10 mi
6:52 AM33 °FClear.9 mph78%29.69 "Hg10 mi
5:52 AM34 °FClear.7 mph73%29.70 "Hg10 mi
4:52 AM35 °FClear.10 mph64%29.70 "Hg10 mi
3:52 AM37 °FClear.10 mph60%29.71 "Hg10 mi
2:52 AM38 °FClear.13 mph58%29.72 "Hg10 mi
1:52 AM39 °FClear.15 mph50%29.74 "Hg10 mi
12:52 AM41 °FClear.15 mph49%29.75 "Hg10 mi
11:52 PM
Thu, Apr 23
46 °FLight rain. Overcast.17 mph40%29.77 "Hg10 mi
Weather by CustomWeather, © 2015

See weather overviewHow to use our weather pages